Concord, NH

3:37 AM EDT on October 19, 2017 (GMT -0400)
Concord Municipal

Weather History for KCON - July, 2013

Change the Weather History Date:

Thursday, July 4, 2013

  Actual Average Record
Temperature  
Mean Temperature 79 °F 69 °F  
Max Temperature 93 °F 82 °F 102 °F (1911)
Min Temperature 65 °F 57 °F 40 °F (1971)
Degree Days  
Heating Degree Days 0 1  
Month to date heating degree days 0 4  
Since 1 June heating degree days 72 89  
Since 1 July heating degree days 0 4  
Cooling Degree Days 14 5  
Month to date cooling degree days 35 20  
Year to date cooling degree days 165 122  
Since 1 June cooling degree days 144 104  
Growing Degree Days 28 (Base 50)    
Moisture  
Dew Point 70 °F    
Average Humidity 73    
Maximum Humidity 100    
Minimum Humidity 46    
Precipitation  
Precipitation 0.00 in 0.11 in 1.11 in (2012)
Month to date precipitation 1.46 0.44  
Year to date precipitation 21.00 19.79  
Snow  
Snow 0.00 in 0.00 in 0.00 in (2002)
Month to date snowfall 0.0 0.0  
Since 1 June snowfall 0.0 0.0  
Since 1 July snowfall 0.0 0.0  
Snow Depth 0.00 in    
Sea Level Pressure  
Sea Level Pressure 30.13 in    
Wind  
Wind Speed 4 mph (SW)    
Max Wind Speed 13 mph    
Max Gust Speed 17 mph    
Visibility 9 miles    
Events      
T = Trace of Precipitation, MM = Missing Value Source: NWS Daily Summary

Daily Weather History Graph

Daily Weather History Graph

Search for Another Location

Airport or City:

Trip Planner

Search our weather history database for the weather conditions in past years. The results will help you decide how hot, cold, wet, or windy it might be!

Date:

Astronomy

Jul. 04, 2013 Rise Set
Actual Time 5:11 AM EDT 8:28 PM EDT
Civil Twilight 4:36 AM EDT 9:03 PM EDT
Nautical Twilight 3:51 AM EDT 9:49 PM EDT
Astronomical Twilight 2:55 AM EDT 10:45 PM EDT
Moon 2:28 AM EDT (7/4) 5:28 PM EDT (7/4)
Length of Visible Light 16h 27m
Length of Day
15h 17m
Waning Crescent, 11% of the Moon is Illuminated
Jul 4
Waning Crescent
Jul 8
New
Jul 15
First Quarter
Jul 22
Full
Jul 29
Last Quarter

Hourly Weather History & Observations

Time (EDT) Temp. Heat Index Dew Point Humidity Pressure Visibility Wind Dir Wind Speed Gust Speed Precip Events Conditions
12:51 AM 71.1 °F - 70.0 °F 96% 30.17 in 10.0 mi Calm Calm - N/A   Clear
1:51 AM 69.1 °F - 68.0 °F 96% 30.16 in 10.0 mi Calm Calm - N/A   Clear
2:51 AM 68.0 °F - 68.0 °F 100% 30.16 in 8.0 mi Calm Calm - N/A   Clear
3:51 AM 68.0 °F - 68.0 °F 100% 30.16 in 5.0 mi Calm Calm - N/A   Clear
4:13 AM 66.2 °F - 66.2 °F 100% 30.17 in 5.0 mi Calm Calm - N/A   Scattered Clouds
4:51 AM 66.9 °F - 66.9 °F 100% 30.17 in 8.0 mi Calm Calm - N/A   Partly Cloudy
5:51 AM 68.0 °F - 66.9 °F 96% 30.18 in 4.0 mi Calm Calm - N/A   Clear
6:51 AM 72.0 °F - 71.1 °F 97% 30.18 in 10.0 mi Calm Calm - N/A   Clear
7:51 AM 77.0 °F - 72.0 °F 84% 30.19 in 10.0 mi SSW 6.9 mph - N/A   Clear
8:51 AM 80.1 °F 83.8 °F 72.0 °F 76% 30.19 in 10.0 mi SW 4.6 mph - N/A   Clear
9:51 AM 84.0 °F 89.6 °F 72.0 °F 67% 30.18 in 10.0 mi WSW 4.6 mph - N/A   Clear
10:51 AM 87.1 °F 93.6 °F 72.0 °F 61% 30.17 in 10.0 mi Variable 4.6 mph - N/A   Clear
11:51 AM 89.1 °F 95.0 °F 71.1 °F 55% 30.15 in 10.0 mi WNW 4.6 mph - N/A   Partly Cloudy
12:51 PM 90.0 °F 96.4 °F 71.1 °F 54% 30.14 in 10.0 mi SSW 5.8 mph - N/A   Scattered Clouds
1:51 PM 93.0 °F 99.0 °F 70.0 °F 47% 30.12 in 10.0 mi SW 6.9 mph - N/A   Partly Cloudy
2:51 PM 91.0 °F 95.2 °F 68.0 °F 47% 30.10 in 10.0 mi SW 9.2 mph - N/A   Scattered Clouds
3:51 PM 91.0 °F 95.6 °F 69.1 °F 48% 30.09 in 10.0 mi SW 6.9 mph - N/A   Scattered Clouds
4:51 PM 90.0 °F 92.8 °F 66.9 °F 46% 30.08 in 10.0 mi SW 8.1 mph - N/A   Partly Cloudy
5:51 PM 90.0 °F 96.4 °F 71.1 °F 54% 30.06 in 10.0 mi SSW 8.1 mph - N/A   Mostly Cloudy
6:51 PM 89.1 °F 96.0 °F 72.0 °F 57% 30.07 in 10.0 mi SW 4.6 mph - N/A   Clear
7:51 PM 84.9 °F 90.7 °F 72.0 °F 65% 30.08 in 10.0 mi SSW 6.9 mph - N/A   Clear
8:51 PM 82.9 °F 87.5 °F 71.1 °F 67% 30.08 in 10.0 mi SSW 8.1 mph - N/A   Clear
9:51 PM 81.0 °F 84.9 °F 71.1 °F 72% 30.10 in 10.0 mi SW 5.8 mph - N/A   Clear
10:51 PM 80.1 °F 83.6 °F 71.1 °F 74% 30.10 in 10.0 mi West 4.6 mph - N/A   Clear
11:51 PM 77.0 °F - 71.1 °F 82% 30.11 in 10.0 mi Calm Calm - N/A   Clear